sat.trackr.live / text

‹ back to catalog

STARLINK-32595

NORAD 62037 · 2024-216F

PAYLOAD ACTIVE UNKNOWN

§ Identity

Operator
Country
US
Launch date
2024-11-21
Launch site
AFETR
Launch vehicle
Mass (kg)
RCS (m²)

Purposes: comms

External: N2YO · Heavens-Above · Gunter

§ Orbital elements

Epoch: 2026-05-25T03:13:00.433056Z

Period
94.27 min
Inclination
42.9996°
Eccentricity
0.0001585
Mean motion
15.27585126 rev/d
Perigee alt
481.9 km
Apogee alt
484.1 km
Semi-major
6,861.2 km
B*
5.0094e-4
RAAN
191.7995°
Arg perigee
263.0332°
Mean anomaly
97.0339°
Rev number
8,549

§ Raw data

STARLINK-325951 62037U 24216F   26145.13403279  .00013550  00000+0  50094-3 0  99942 62037  42.9996 191.7995 0001585 263.0332  97.0339 15.27585126 85497

JSON: /api/v1/satellites/62037 · /tle

For live sub-satellite position, see the globe view (requires WebGL).

§ Visibility from observer

Set your observer location to see the next 7 days of passes ≥ 10°. The values pass through the URL so the page stays shareable.

No JS? Fill the form by hand. The geolocation button needs JavaScript.